Weather Roundup
Issued by NWS

Home | Current Version | Previous Version | Graphics & Text | Print | Product List | Glossary Off
Versions: 1 2 3 4 5 6 7 8 9 10 11 12 13 14 15 16 17 18 19 20 21 22 23 24 25 26 27 28 29 30 31 32 33 34 35 36 37 38 39 40 41 42 43 44 45 46 47 48 49 50

222
NZUS93 KARX 242359
HRRWXR

CURRENT HOURLY OBSERVATIONS ACROSS
MUCH OF THE UPPER MISSISSIPPI VALLEY
NATIONAL WEATHER SERVICE LA CROSSE WI
700 PM CDT SUN JUL 24 2016


...SOUTHEAST MINNESOTA...


CITY           SKY/WX    TMP DP  RH WIND       PRES   REMARKS
ROCHESTER      MOSUNNY   75  66  73 NW9       29.96S
ROCHESTER/MAYO FAIR      76  65  68 W9        29.94F
WINONA         CLOUDY    79  64  61 NW10      29.92S
AUSTIN         CLOUDY    75  64  69 NW7       29.95S
ALBERT LEA     PTSUNNY   75  64  69 W5        29.97F
DODGE CENTER   CLOUDY    75  64  69 NW8       29.95F
PRESTON        CLOUDY    74  65  72 NW5       29.94F
OWATONNA       CLOUDY    77  64  65 NW9       29.96S
FARIBAULT      MOSUNNY   77  64  65 W7        29.96S
$$

...ELSEWHERE IN MINNESOTA...


CITY           SKY/WX    TMP DP  RH WIND       PRES   REMARKS
MINNEAPOLIS    CLOUDY    81  62  52 NW13      29.93S
INTNL FALLS    MOSUNNY   75  58  55 W17G29    29.83R
DULUTH         MOSUNNY   78  60  53 W17       29.87S
RED WING       MOSUNNY   82  63  51 W7        29.90F
REDWOOD FALLS  SUNNY     80  64  58 NW10      29.97F
MANKATO        CLOUDY    79  61  53 NW13      29.96S
WORTHINGTON    CLOUDY    76  64  66 NW7       30.04R
FAIRMONT       CLOUDY    75  54  46 W9        29.99R
$$

...SOUTHWEST WISCONSIN...


CITY           SKY/WX    TMP DP  RH WIND       PRES   REMARKS
LA CROSSE      MOSUNNY   83  66  56 W6        29.89F
PRAIRIE DU CHI CLOUDY    80  64  58 W5        29.91S
BOSCOBEL       CLOUDY    82  67  60 W6        29.91S
LONE ROCK      NOT AVBL
PLATTEVILLE    MOSUNNY   82  72  71 W9G16     29.92R
FORT MC COY    MOSUNNY   82  65  55 W10       29.91S
MAUSTON-NEW LI MOCLDY    81  66  61 W10       29.88S
VIROQUA        FAIR      81  64  57 NW12G17   29.94S
WIS DELLS      NOT AVBL
$$

...ELSEWHERE IN WISCONSIN...


CITY           SKY/WX    TMP DP  RH WIND       PRES   REMARKS
MILWAUKEE      CLOUDY    92  77  61 W13G21    29.81S HX 105
MADISON        PTSUNNY   86  71  60 NW12G20   29.86R HX  91
GREEN BAY      SUNNY     83  73  72 W10       29.81R
EAU CLAIRE     NOT AVBL
BLACK RVR FLS  FAIR      83  62  48 W14       29.90S
MEDFORD        MOSUNNY   78  64  62 W14G20    29.90R
WAUSAU         SUNNY     81  63  54 W14G24    29.86R
WIS RAPIDS     MOSUNNY   83  62  49 NW10G20   29.89R
MARSHFIELD     CLOUDY    80  64  58 W8        29.89S
RICE LAKE      MOSUNNY   76  61  58 W7        29.92F
$$

...NORTHEAST IOWA...


CITY           SKY/WX    TMP DP  RH WIND       PRES   REMARKS
WATERLOO       PTSUNNY   78  66  66 W7        29.95R
DUBUQUE        SUNNY     81  68  64 NW15      29.93R
DECORAH        MOSUNNY   79  64  61 NW7G14    29.94S
MASON CITY     CLOUDY    75  65  70 NW8       29.99S
CHARLES CITY   CLOUDY    77  66  69 NW9       29.96F
OELWEIN        CLOUDY    77  68  73 NW8       29.96S
$$

...ELSEWHERE IN IOWA...


CITY           SKY/WX    TMP DP  RH WIND       PRES   REMARKS
DES MOINES     CLOUDY    82  67  60 N7        29.98S
IOWA CITY      MOSUNNY   85  69  58 NW13      29.94R
FORT DODGE     CLOUDY    77  64  65 N3        30.01R
MARSHALLTOWN   MOSUNNY   78  68  71 VRB5      29.96F
CEDAR RAPIDS   PTSUNNY   80  71  74 NW12      29.93S
$$

...NORTHERN ILLINOIS...


CITY           SKY/WX    TMP DP  RH WIND       PRES   REMARKS
CHICAGO-OHARE  CLOUDY    73  68  84 S15       29.88R THUNDER
CHICAGO-MIDWAY TSTM      78  63  59 N26G33    29.88R
MOLINE         CLOUDY    88  80  77 W8        29.88R HX 104
ROCKFORD       PTSUNNY   90  81  74 SW13      29.86S HX 108
PEORIA         CLOUDY    89  82  79 SW8       29.87R THUNDER HX 110
$$

NOTE: "FAIR" INDICATES FEW OR NO CLOUDS BELOW 12,000 FEET WITH NO
SIGNIFICANT WEATHER AND/OR OBSTRUCTIONS TO VISIBILITY. WIND
SPEEDS ARE IN MILES-PER-HOUR.




USA.gov is the U.S. government's official web portal to all federal, state and local government web resources and services.